Regional Weather Roundup
Issued by NWS Melbourne, FL

Current Version | Previous Version | Text Only | Print | Product List | Glossary On
Versions: 1 2 3 4 5 6 7 8 9 10 11 12 13 14 15 16 17 18 19 20 21 22 23 24 25 26 27 28 29 30 31 32 33 34 35 36 37 38 39 40 41 42 43 44 45 46 47 48 49 50
000
ASUS42 KMLB 140111
RWRMLB
HOURLY WEATHER ROUNDUP AROUND FLORIDA
NATIONAL WEATHER SERVICE OFFICE MELBOURNE FL
800 PM EST THU DEC 13 2018

CITY           SKY/WX    TMP DP  RH WIND       PRES   REMARKS
MELBOURNE      MOCLDY    71  63  75 SE8       30.13R
FORT PIERCE    FAIR      70  64  81 E10       30.12R
ORLANDO INTL   CLOUDY    68  61  78 E10       30.12R
DAYTONA BEACH  CLOUDY    65  63  93 VRB3      30.11F
VERO BEACH     MOCLDY    70  64  81 E9        30.12S
$$
...ELSEWHERE ACROSS CENTRAL FLORIDA...

CITY           SKY/WX    TMP DP  RH WIND       PRES   REMARKS
PATRICK AFB    MOCLDY    69  67  93 SE6       30.13R
KSC            FAIR      64  61  91 S5        30.12S
CAPE CANAVERAL FAIR      66  61  84 SE6       30.11F
TITUSVILLE     MOCLDY    70  66  88 VRB5      30.13F
ORLANDO EXEC   FAIR      67  61  81 SE7       30.11S
LEESBURG       FAIR      65  60  84 SE12      30.08F
SANFORD        FAIR      64  62  93 SE7       30.11F
DELAND         FAIR      64  61  88 SE7       30.10F
NEW SMYRNA BCH PTCLDY    63  61  94 S5        30.13F
WINTER HAVEN   FAIR      67  62  84 E8        30.11F
KISSIMMEE      FAIR      68  61  78 E7        30.12S
OKEECHOBEE     FAIR      66  63  88 E3        30.11R
TAMPA          MOCLDY    73  58  59 E7        30.06F
$$
...NORTHERN FLORIDA...

CITY           SKY/WX    TMP DP  RH WIND       PRES   REMARKS
PALM COAST     FAIR      62  60  93 CALM      30.11F
ST AUGUSTINE   FAIR      61  60  97 E3        30.13S
OCALA          FAIR      67  59  75 E3        30.08F
GAINESVILLE    FAIR      62  59  90 E6        30.11F
JACKSONVILLE   CLOUDY    59  57  93 NE8       30.11F
TALLAHASSEE    LGT RAIN  60  57  89 NE5       30.04S
$$
...ALONG THE SOUTHEAST COAST TO THE KEYS...

CITY           SKY/WX    TMP DP  RH WIND       PRES   REMARKS
WEST PALM BCH  FAIR      72  63  73 SE12      30.11R
MIAMI          MOCLDY    72  65  78 SE7       30.10S
KEY WEST       FAIR      77  68  73 SE16      30.07R
$$
...MARINE REPORTS...

STATION/POSITION TIME  TEMP    WIND        PRES    WAVE   SWELL
                       AIR SEA DIR/SP/G            HT/PER HT/PER
                 (UTC) (F)     (DEG/KT/KT) (MB)    (FT/S) (FT/S)
ST AUGUSTINE FP  0100   63 61  120/  4/  4 1020.1R
20NM E CAPE CANA 0050   75     120/ 19/ 25   N/A     5/ 5   3/ 9
TRIDENT PIER     0048   67 66  140/  4/  5 1021.5S
SEBASTIAN INLET  0045   69 70  130/ 12     1021.0R
4NM E PORT CANAV 0100      66                N/A     5/ 6
6NM NE FPR INLET 0030      69                N/A     5/ 5   2/11
SETTLEMENT PT GB 0100   70      70/  9/ 11 1020.2S
$$



USA.gov is the U.S. government's official web portal to all federal, state and local government web resources and services.